Find Starlink 11572

NORAD ID: 62990 Int'l Des: 2025-031 Owner: SPXS Country: US Constellation: starlink operational
LEOCIRCULAR

Live Position

Loading 3D Globe...

About Starlink 11572

Description loading...

Upcoming Passes

Passes for default location (London). Set your location on the main map for personalized predictions.

Altitude History

Loading altitude history...

Two-Line Element Set

1 62990U 25031K 26125.71878807 .00272367 00000-0 20501-2 0 9996
2 62990 42.9990 17.5206 0001927 259.5366 100.5285 15.70923315 71710
Epoch: May 5, 2026 • Age: 7 hours

Current Status

Altitude 367.4 km
Velocity 7.69 km/s
Sub-Earth Point -41.87°S, 70.63°E
Launch Date Feb 11, 2025
Age 1.2 years
Type internet

Technical Details

Classification Payload
Mass 960.00 kg
Dry Mass 910.00 kg
Total Mass 960.00 kg
Length 0.30 m
Diameter 4.10 m
Span 29.00 m
Shape Box + pan
Manufacturer SPXS
Bus Type Starlink V2MD
Phase Status In Orbit
Owner/State SPXS/US

Most Searched